STARLINK-34753

Last updated on Wed Aug 27 2025 00:02:05 GMT+0000 (Coordinated Universal Time)

1 64946U 25158Q 25237.91670139 .00070043 00000+0 17845-2 0 9995 2 64946 97.6029 100.5732 0001623 108.8026 228.3587 15.39295119 5925

Satellite not in orbit

STARLINK-34753